www.pogodaiklimat.ru

Погода и климат >> Архив погоды >> Франц. Южн. Территории >> Порт-о-Франсе


ПОГОДА в Порт-о-Франсе

  • Прогноз погоды в Порт-о-Франсе
  • Монитор погоды в Порт-о-Франсе

АРХИВ ПОГОДЫ в Порт-о-Франсе

Время (UTC), дата Ветер
(напр.,м/с)
 
Видим.   Явления Облачность Т
(С)
Тd
(С)
f
(%)
Тe
(С)
Тes
(С)
Комфортность P
(гПа)
Po
(гПа)
Тmin
(С)
Tmax
(С)
R
(мм)
R24
(мм)
S
(см)
22 15.04 З 12
{16}
н/о н/о +8.2 +2.4 67 +3 +3 990.8 987.2
23 15.04 З 17
{22}
н/о н/о +6.9 +0.6 64 0 0 991.1 987.5
00 16.04 З 16
{27}
н/о н/о +6.0 -0.5 63 -1 -1 991.7 988.1
01 16.04 З 19
{27}
н/о н/о +5.9 -0.8 62 -2 -2 993.4 989.8
02 16.04 З 22
{29}
н/о н/о +5.6 -1.1 62 -2 -2 994.4 990.8
03 16.04 З 20
{29}
10 км 6/6 800 м
[Sc diur, vesp]
+5.9 -0.8 62 -2 -2 996.7 993.1
04 16.04 ЮЗ 27
{35}
н/о н/о +5.7 -1.5 60 -3 -3 998.4 994.7
05 16.04 ЮЗ 24
{33}
н/о н/о +5.8 -0.9 62 -2 -2 1000.1 996.4 0.0
06 16.04 ЮЗ 25
{35}
5000 м слаб. ливневой дождь 6/6 800 м
[Sc diur, vesp]
+5.9 -0.8 62 -2 -2 1002.3 998.6 +5.6 0.4
07 16.04 ЮЗ 22
{32}
н/о н/о +5.7 -0.6 64 -2 -2 1004.8 1001.1 0.0
08 16.04 ЮЗ 21
{28}
н/о н/о +5.8 -0.7 63 -2 -2 1007.3 1003.6 0.0
09 16.04 ЮЗ 19
{29}
н/о н/о +5.4 +0.2 69 -2 -2 1009.8 1006.1 0.0
10 16.04 ЮЗ 15
{25}
н/о н/о +5.4 -0.9 64 -2 -2 1011.8 1008.1 0.0
11 16.04 ЮЗ 17
{22}
н/о н/о +4.6 -1.8 63 -3 -3 1013.7 1010.0 0.0
12 16.04 ЮЗ 14
{21}
15 км 6/6 800 м
[Sc diur, vesp]
+4.5 -1.5 65 -3 -3 1015.1 1011.4 0.0
13 16.04 ЮЗ 13
{19}
н/о н/о +3.7 -1.9 67 -4 -4 1016.6 1012.9
14 16.04 ЮЗ 10
{17}
н/о н/о +3.8 -2.6 63 -3 -3 1018.6 1014.8
15 16.04 ЮЗ 10
{15}
н/о н/о +3.6 -3.0 62 -3 -3 1019.6 1015.8
16 16.04 ЮЗ 10
{16}
н/о н/о +3.5 -2.3 66 -3 -3 1020.3 1016.5
17 16.04 ЮЗ 7
{13}
н/о н/о +3.0 -2.9 65 -3 -3 1022.4 1018.6
18 16.04 ЮЗ 6
{9}
н/о н/о +3.0 -3.2 64 -2 -2 1023.0 1019.2 +6.2 0.0
19 16.04 ЮЗ 4
{7}
н/о н/о +2.1 -3.6 66 -3 -3 1023.5 1019.7
20 16.04 ЮЗ 4
{7}
н/о н/о +2.4 -3.3 66 -2 -2 1024.2 1020.4
21 16.04 З 2
{7}
н/о н/о +1.6 -3.9 67 -1 -1 1025.2 1021.4
22 16.04 СЗ 5
{7}
н/о н/о +0.2 -3.4 77 -6 -6 1024.9 1021.1
23 16.04 СЗ 5
{6}
н/о н/о +0.2 -3.5 76 -5 -5 1025.3 1021.5
00 17.04 С 5
{5}
н/о н/о -0.5 -4.0 77 -6 -6 1025.5 1021.7
01 17.04 С 4
{6}
н/о н/о -0.6 -4.0 78 -6 -6 1025.2 1021.4
02 17.04 С 5
{6}
н/о н/о -1.3 -4.3 80 -8 -8 1024.8 1021.0
03 17.04 С 5
{6}
30 км 4/1 700 м
[Sc diur, vesp Ci sp]
+0.1 -3.1 79 -6 -6 1024.7 1020.9
04 17.04 С 7
{9}
н/о н/о +3.0 -1.6 72 -3 -3 1024.3 1020.5
05 17.04 С 7
{10}
н/о н/о +3.6 -1.2 71 -2 -2 1023.8 1020.0
06 17.04 С 7
{14}
20 км 10/3 700 м
[Cu hum As op]
+3.8 -1.2 70 -2 -2 1023.1 1019.3 -1.3 0.0
07 17.04 С 12
{15}
н/о н/о +4.3 -1.1 68 -3 -3 1022.3 1018.5
08 17.04 С 12
{17}
н/о н/о +4.6 -0.8 68 -2 -2 1020.8 1017.1
09 17.04 С 13
{18}
н/о н/о +4.6 -0.6 69 -3 -3 1019.4 1015.7
10 17.04 С 13
{18}
н/о н/о +4.8 +0.2 72 -2 -2 1017.8 1014.1
11 17.04 С 15
{22}
н/о н/о +5.0 +0.9 75 -3 -3 1016.1 1012.4
12 17.04 С 13
{22}
3000 м осадки на расстоянии 10/10 480 м
[Frnb]
+4.9 +1.9 81 -2 -2 1014.1 1010.4
13 17.04 С 15
{20}
н/о н/о +5.4 +2.6 82 -2 -2 1012.1 1008.4
14 17.04 СВ 13
{20}
н/о н/о +5.7 +3.2 84 -1 -1 1011.1 1007.4
15 17.04 СВ 12
{16}
н/о н/о +6.2 +4.2 87 -0 -0 1008.7 1005.0 0.2
16 17.04 СВ 12
{17}
н/о н/о +6.7 +4.7 87 0 0 1006.3 1002.6 0.8
17 17.04 С 19
{26}
н/о н/о +7.4 +5.7 89 0 0 1002.9 999.3 3
18 17.04 С 23
{32}
н/о н/о +7.7 +6.3 91 0 0 999.1 995.5 +6.3 10
19 17.04 С 26
{34}
н/о н/о +7.9 +6.8 93 0 0 996.6 993.0 7
20 17.04 С 24
{32}
н/о н/о +8.4 +7.5 94 +1 +1 995.8 992.2 6
21 17.04 С 20
{30}
н/о н/о +8.7 +7.5 92 +2 +2 995.5 991.9 21
22 17.04 С 17
{26}
н/о н/о +10.0 +9.2 95 +4 +4 995.2 991.6 5
23 17.04 СЗ 11
{20}
н/о н/о +10.3 +8.2 87 +6 +6 994.3 990.7 0.4
00 18.04 СЗ 5
{16}
н/о н/о +9.7 +8.3 91 +6 +6 995.6 992.0 26
01 18.04 СЗ 2
{8}
н/о н/о +9.4 +7.8 90 +8 +8 995.8 992.2
02 18.04 СЗ 4
{5}
н/о н/о +7.9 +5.9 87 +4 +4 995.4 991.8
03 18.04 З 3
{7}
65 км 8/3 900 м
[Sc diur, vesp As trans Ci fib]
+7.7 +3.9 77 +5 +5 996.5 992.9
04 18.04 В 3
{4}
н/о н/о +7.5 +5.1 85 +5 +5 996.4 992.8
05 18.04 В 5
{7}
н/о н/о +7.1 +5.6 90 +3 +3 996.2 992.6
06 18.04 ЮВ 3
{7}
40 км 8/0
[As trans Cs]
+8.6 +6.4 86 +6 +9 996.1 992.5 +6.3 36
07 18.04 СЗ 4
{7}
н/о н/о +11.8 -0.1 44 +10 +10 995.5 991.9
08 18.04 З 10
{12}
н/о н/о +9.4 +2.5 62 +5 +5 996.7 993.1
09 18.04 З 4
{14}
н/о н/о +9.4 +4.8 73 +7 +7 995.6 992.0
10 18.04 С 5
{8}
н/о н/о +9.8 +4.2 68 +7 +7 994.4 990.8
11 18.04 С 7
{10}
н/о н/о +7.9 +4.1 77 +3 +3 994.2 990.6
12 18.04 С 9
{13}
35 км 5/4 800 м
[Sc diur, vesp Cs]
+6.2 +4.2 87 +1 +1 991.8 988.2
13 18.04 СВ 5
{12}
н/о н/о +6.4 +3.7 83 +2 +2 991.8 988.2
14 18.04 С 11
{15}
н/о н/о +6.7 +5.3 91 +1 +1 988.7 985.1
15 18.04 С 15
{19}
н/о н/о +7.4 +6.0 91 +1 +1 986.0 982.4
16 18.04 С 16
{22}
н/о н/о +8.7 +7.3 91 +2 +2 983.5 979.9 5
17 18.04 СЗ 14
{25}
н/о н/о +9.4 +6.8 84 +4 +4 981.7 978.2 6
18 18.04 СЗ 12
{24}
н/о н/о +8.0 +4.2 77 +2 +2 981.4 977.8 +11.9 11
19 18.04 СЗ 15
{21}
н/о н/о +7.0 +3.1 76 0 0 981.3 977.7
20 18.04 СЗ 14
{23}
н/о н/о +6.5 +1.2 69 0 0 981.9 978.3 0.2
21 18.04 СЗ 14
{22}
н/о н/о +5.5 +0.7 71 -2 -2 982.8 979.2 0.2
22 18.04 СЗ 13
{20}
н/о н/о +5.4 -0.2 67 -1 -1 982.9 979.3
23 18.04 СЗ 16
{23}
н/о н/о +6.2 +1.1 70 -1 -1 982.1 978.5
00 19.04 СЗ 16
{23}
н/о н/о +6.1 +0.8 69 -1 -1 981.4 977.8 0.2
01 19.04 СЗ 15
{23}
н/о н/о +5.8 +1.5 74 -1 -1 980.7 977.1
02 19.04 З 12
{23}
н/о н/о +4.0 +1.0 81 -3 -3 981.2 977.6 1
03 19.04 СЗ 15
{21}
10 км слаб. ливневой дождь 8/8 800 м
[Sc diur, vesp]
+5.9 +1.8 75 -1 -1 980.0 976.4 2
04 19.04 СЗ 14
{23}
н/о н/о +5.8 +1.5 74 -1 -1 979.6 976.0 0.0
05 19.04 СЗ 19
{26}
н/о н/о +6.6 +1.5 70 -1 -1 979.1 975.5 0.0
06 19.04 СЗ 17
{25}
5000 м слаб. ливневой дождь 8/8 800 м
[Sc diur, vesp]
+7.6 +0.6 61 +1 +1 978.4 974.8 +4.0 13
07 19.04 СЗ 17
{27}
н/о н/о +6.8 +1.9 71 -0 -0 977.8 974.2 0.0
08 19.04 СЗ 15
{24}
н/о н/о +6.8 +1.3 68 0 0 977.0 973.4 0.2
09 19.04 СЗ 17
{26}
н/о н/о +7.0 +0.9 65 0 0 976.3 972.7 0.4
10 19.04 СЗ 14
{25}
н/о н/о +4.5 +1.2 79 -3 -3 977.2 973.6 0.8
11 19.04 СЗ 12
{22}
н/о н/о +3.6 +1.1 84 -4 -4 977.3 973.7 1
12 19.04 СЗ 13
{20}
15 км слаб. ливневой дождь 6/6 800 м
[Cb cap Ci fib]
+4.1 -0.1 74 -3 -3 976.7 973.1 2
13 19.04 СЗ 14
{22}
н/о н/о +4.2 0.0 74 -3 -3 976.3 972.7 0.0
14 19.04 СЗ 14
{25}
н/о н/о +4.5 -0.1 72 -3 -3 976.4 972.8 0.2
15 19.04 З 17
{24}
н/о н/о +5.1 +0.7 73 -3 -3 976.8 973.2 0.2
16 19.04 З 19
{27}
н/о н/о +4.9 +1.0 76 -3 -3 978.3 974.7 0.0
17 19.04 З 19
{24}
н/о н/о +5.3 +0.1 69 -2 -2 979.7 976.1 0.2
18 19.04 З 18
{26}
н/о н/о +4.8 +0.4 73 -3 -3 981.7 978.1 +7.9 3
19 19.04 З 17
{26}
н/о н/о +4.9 +0.5 73 -3 -3 983.6 980.0
20 19.04 З 17
{23}
н/о н/о +4.9 +0.5 73 -3 -3 985.4 981.8
21 19.04 З 18
{25}
н/о н/о +3.9 +0.2 77 -5 -5 987.2 983.6
22 19.04 З 16
{25}
н/о н/о +4.5 -0.7 69 -3 -3 988.3 984.7
23 19.04 З 19
{26}
н/о н/о +4.6 -2.1 62 -3 -3 989.4 985.8
00 20.04 З 17
{27}
н/о н/о +4.4 -1.8 64 -3 -3 991.1 987.5
01 20.04 ЮЗ 15
{25}
н/о н/о +4.4 -2.3 62 -3 -3 993.4 989.7
02 20.04 ЮЗ 15
{22}
н/о н/о +4.3 -2.3 62 -3 -3 994.4 990.7
03 20.04 З 12
{22}
н/о н/о +4.2 -2.0 64 -3 -3 996.0 992.3
04 20.04 З 12
{20}
н/о н/о +4.7 -0.5 69 -2 -2 997.4 993.7
05 20.04 З 13
{17}
н/о н/о +3.4 +1.0 84 -4 -4 998.2 994.5 0.2
06 20.04 ЮЗ 8
{15}
н/о н/о +4.4 +1.2 80 -2 -2 998.4 994.7 +4.0 3
07 20.04 З 12
{20}
н/о н/о +4.4 +0.4 75 -3 -3 998.9 995.2 0.8
08 20.04 З 12
{18}
н/о н/о +5.7 +0.6 70 -1 -1 999.1 995.4 0.2
09 20.04 З 13
{20}
н/о н/о +4.8 -0.2 70 -2 -2 999.6 995.9 1
10 20.04 З 13
{19}
н/о н/о +4.1 -0.3 73 -3 -3 1000.2 996.5
11 20.04 ЮЗ 14
{21}
н/о н/о +2.5 -0.4 81 -6 -6 1001.0 997.3 0.4
12 20.04 З 12
{19}
н/о н/о +3.2 -1.0 74 -4 -4 1001.5 997.8 2
13 20.04 З 12
{17}
н/о н/о +2.7 -0.9 77 -5 -5 1002.1 998.4
14 20.04 З 16
{23}
н/о н/о +2.2 -1.6 76 -7 -7 1002.7 999.0 0.2
15 20.04 З 15
{21}
н/о н/о +2.8 -1.9 71 -6 -6 1003.0 999.3 0.2
16 20.04 ЮЗ 17
{24}
н/о н/о +2.7 -1.3 75 -6 -6 1004.0 1000.3
17 20.04 ЮЗ 12
{23}
н/о н/о +3.4 -1.4 71 -4 -4 1004.4 1000.7
18 20.04 З 10
{18}
н/о н/о +3.7 -1.7 68 -3 -3 1005.1 1001.4 +5.9 2
19 20.04 З 8
{13}
н/о н/о +3.6 -1.6 69 -2 -2 1005.4 1001.7
20 20.04 З 4
{10}
н/о н/о +3.2 -1.4 72 -1 -1 1005.9 1002.2
21 20.04 З 7
{9}
н/о н/о +4.0 -0.4 73 -2 -2 1006.3 1002.6
22 20.04 З 8
{11}
н/о н/о +4.2 -1.2 68 -2 -2 1006.1 1002.4
23 20.04 СЗ 5
{12}
н/о н/о +4.0 -1.2 69 -1 -1 1005.9 1002.2
00 21.04 С 3
{7}
н/о н/о +3.4 -1.2 72 0 0 1005.1 1001.4
01 21.04 СЗ 7
{8}
н/о н/о +3.8 +0.3 78 -2 -2 1004.3 1000.6
02 21.04 СЗ 6
{9}
н/о н/о +4.3 +1.5 82 -1 -1 1003.0 999.3
03 21.04 СЗ 7
{10}
н/о н/о +5.1 +2.3 82 -0 -0 1001.8 998.1 0.2
04 21.04 СЗ 9
{13}
н/о н/о +6.5 +3.6 82 +1 +1 1000.5 996.9
05 21.04 СЗ 12
{15}
н/о н/о +8.0 +4.6 79 +2 +2 999.5 995.9
06 21.04 СЗ 12
{20}
н/о н/о +8.1 +4.1 76 +2 +2 997.4 993.8 +2.6 2
07 21.04 СЗ 13
{18}
н/о н/о +8.4 +4.6 77 +3 +3 996.6 993.0
08 21.04 СЗ 13
{19}
н/о н/о +8.6 +5.7 82 +3 +3 995.0 991.4 0.2
09 21.04 СЗ 18
{23}
н/о н/о +9.6 +6.1 79 +4 +4 992.7 989.1 0.2
10 21.04 СЗ 15
{23}
н/о н/о +9.6 +6.7 82 +4 +4 992.2 988.6 0.4
11 21.04 СЗ 15
{21}
н/о н/о +9.9 +6.8 81 +4 +4 991.3 987.7
12 21.04 З 16
{24}
н/о н/о +11.1 +6.8 75 +6 +6 990.4 986.9 0.8
13 21.04 З 17
{26}
н/о н/о +11.3 +6.8 74 +6 +6 989.5 986.0
14 21.04 З 16
{26}
н/о н/о +11.5 +6.8 73 +7 +7 989.4 985.9
15 21.04 СЗ 11
{22}
н/о н/о +10.0 +7.4 84 +5 +5 988.8 985.2 0.2
16 21.04 СЗ 14
{21}
н/о н/о +9.9 +7.3 84 +5 +5 987.9 984.3 0.2
17 21.04 СЗ 15
{22}
н/о н/о +10.0 +7.1 82 +5 +5 986.5 983.0 1
18 21.04 СЗ 16
{22}
н/о н/о +10.1 +7.3 83 +5 +5 985.2 981.7 +11.8 2
19 21.04 СЗ 14
{20}
н/о н/о +9.7 +7.3 85 +4 +4 984.8 981.3 0.2
20 21.04 З 12
{20}
н/о н/о +10.7 +6.6 76 +6 +6 984.0 980.5
21 21.04 З 13
{22}
н/о н/о +10.8 +6.2 73 +6 +6 984.1 980.6 0.2
22 21.04 З 14
{21}
н/о н/о +9.7 +5.1 73 +5 +5 984.8 981.3
23 21.04 З 14
{21}
н/о н/о +9.4 +4.6 72 +4 +4 985.4 981.8
00 22.04 З 12
{22}
н/о н/о +8.5 +4.5 76 +3 +3 986.8 983.2 0.2
01 22.04 З 10
{16}
н/о н/о +7.8 +4.0 77 +3 +3 987.8 984.2
02 22.04 ЮЗ 8
{16}
н/о н/о +7.5 +3.9 78 +3 +3 989.2 985.6
03 22.04 Ю 3
{8}
н/о н/о +7.2 +4.0 80 +5 +5 990.9 987.3
04 22.04 ЮЗ 7
{9}
н/о н/о +7.5 +4.3 80 +3 +3 992.3 988.7
05 22.04 ЮЗ 7
{11}
н/о н/о +7.6 +4.0 78 +3 +3 993.2 989.6
06 22.04 Ю 8
{10}
н/о н/о +6.2 +2.8 79 +1 +1 994.1 990.5 +6.7 3
07 22.04 ЮЗ 5
{10}
н/о н/о +6.6 +3.0 78 +3 +3 995.0 991.4
08 22.04 Ю 3
{7}
н/о н/о +6.0 +2.8 80 +3 +3 995.1 991.5
09 22.04 ЮВ 5
{6}
н/о н/о +4.9 +2.8 86 0 0 995.2 991.6
10 22.04 В 5
{6}
н/о н/о +4.9 +2.3 83 0 0 995.4 991.8
11 22.04 В 6
{8}
н/о н/о +4.3 +1.5 82 -1 -1 995.6 991.9
12 22.04 В 5
{7}
н/о н/о +3.5 +1.9 89 -2 -2 995.6 991.9 0.2
13 22.04 В 5
{6}
н/о н/о +3.4 +2.1 91 -2 -2 995.6 991.9
14 22.04 В 4
{6}
н/о н/о +3.3 +2.0 91 -1 -1 995.7 992.0
15 22.04 В 4
{6}
н/о н/о +3.3 +2.3 93 -1 -1 995.3 991.6 0.2
16 22.04 В 3
{6}
н/о н/о +3.3 +2.3 93 -0 -0 995.2 991.5
17 22.04 В 3
{4}
н/о н/о +3.4 +2.5 94 -0 -0 995.1 991.4
18 22.04 В 3
{5}
н/о н/о +3.3 +2.4 94 -1 -1 994.7 991.0 +8.1 0.6
19 22.04 В 3
{4}
н/о н/о +3.1 +2.2 94 -1 -1 994.1 990.4
20 22.04 В 3
{3}
н/о н/о +3.2 +2.3 94 -1 -1 993.9 990.2
21 22.04 ЮВ 3 н/о н/о +3.0 +2.1 94 -1 -1 993.6 989.9

 

Местоположение метеостанции Порт-о-Франсе (Франц. Южн. Территории): широта -49.30 долгота 70.20 высота над уровнем моря 30 м.

В архиве по умолчанию представлена погода в Порт-о-Франсе за последнюю неделю. Архивные данные за месяц целиком и за предыдущие месяцы, начиная с января 2011 года, Вы можете получить, выбрав интересующий диапазон дат из раскрывающегося списка и нажав кнопку "Ввод!".


*Определитесь, кто Вы:
робот инопланетянин человек

Внимание! Время в таблицах - всемирное. Для получения местного времени необходимо прибавить поправку, которая равна 5 ч.

Смотрите также архив погоды в соседних городах и на ближайших метеорологических станциях:

Погода на Острове Херд (Тасмания, Австралия) (489 км)
Погода на Базе Alfred Faure (Франц. Южн. Территории) (1401 км)
Погода в Мартен-де-Вивье (Франц. Южн. Территории) (1406 км)
Погода на Моусоне (Антарктида) (2076 км)
Погода на Davis (Whoop Whoop) (Антарктида) (2184 км)
Погода на Davis (Антарктида) (2186 км)

Пояснения к столбцам:

Ветер - указаны скорость ветра в м/с - средняя за 10 мин, порывы в срок и между сроками (в фигурных скобках) и направление, откуда дует ветер: С - северный, СВ - северо-восточный, В - восточный, ЮВ - юго-восточный, Ю - южный, ЮЗ - юго-западный, З - западный, СЗ - северо-западный.
Видимость - горизонтальная дальность видимости в метрах или километрах. При видимости от 1 до 10 км при отсутствии осадков обычно наблюдается дымка, при ухудшении видимости до 1 км и менее - туман. В сухую погоду видимость может ухудшаться дымом, пылью или мглою.
Явления - указаны атмосферные явления, наблюдавшиеся в срок или в последний час перед сроком; фигурными скобками обозначены явления, наблюдавшиеся между сроками (за 1-3 часа до срока); квадратными скобками обозначены град или гололедные отложения с указанием их диаметра в мм.
Облачность - указаны через наклонную черту общая и нижняя облачность в баллах и высота нижней границы облаков в метрах; квадратными скобками обозначены формы облаков: Ci - перистые, Cs - перисто-слоистые, Cc - перисто-кучевые, Ac - высококучевые, As - высокослоистые, Sc - слоисто-кучевые, Ns - слоисто-дождевые, Cu - кучевые, Cb - кучево-дождевые. Подробнее классификацию облаков см. в Атласе облаков (PDF).
T - Температура воздуха - температура, измеренная на высоте 2 м над землей.
Td - Температура точки росы - температура, при понижении до которой содержащийся в воздухе водяной пар достигнет насыщения.
f - Относительная влажность воздуха - влажноcть воздуха, измеренная на высоте 2 м над землей.
Te - Эффективная температура - температура, которую ощущает одетый по сезону человек в тени. Характеристика душности погоды. При расчете учитывается влияние влажности воздуха и скорости ветра на теплоощущения человека.
Tes - Эффективная температура на солнце - температура, которую ощущает человек, с поправкой на солнечный нагрев. Характеристика знойности погоды. Зависит от высоты солнца над горизонтом, облачности и скорости ветра. Ночью, в пасмурную погоду, а также при ветре 12 м/с и более поправка равна нулю.
P - Атмосферное давление - приведенное к уровню моря атмосферное давление.
Po - Атмосферное давление - измеренное на уровне метеостанции атмосферное давление.
Tmin - Минимальная температура - минимум температуры воздуха на высоте 2 м над землей.
Tmax - Максимальная температура - максимум температуры воздуха на высоте 2 м над землей.
R - Количество осадков - Количество выпавших осадков за период времени, мм. При наведении курсора мыши на число - период времени, за который выпало указанное количество осадков.
R24 - Количество осадков - Количество выпавших осадков за 24 часа, мм.
S - Снежный покров - Высота снежного покрова, см. При наведении курсора мыши на число - состояние снежного покрова и степень покрытия местности в баллах.